Details for Ryanair at LIMC




Go Back


Latest METAR
Local Time

LIMC 180620Z 02005KT CAVOK 22/16 Q1018 NOSIG
18/08/2018, 08:28:50

Description
Results
Ryanair Logo
Number of Pilots based at LIMC
0 Pilots Based here
Number of Ryanair Flights Departed from LIMC
4 Flights Departed
Number of Ryanair Flights Arrived at LIMC
3 Flights Arrived
Number of Ryanair Schedules Departing from LIMC
44 Schedules
Number of Ryanair Schedules Arriving at LIMC
46 Schedules
Number of Ryanair Schedules Departing from LIMC availible today
16 Schedules Today
Number of Ryanair Schedules Arriving at LIMC availible today
16 Schedules Today
Average Landing Rate at LIMC
-261 fpm
Ryanair Average Landing Rate at LIMC
-143 fpm
Total Fuel Purchased at LIMC by Ryanair
17,869.72 kgs / 39,395.58 lbs

Pilots Based at LIMC


Pilot ID
Pilot Name
Pilot Rank
No. of Flights
No. of Flying Hours
There are no pilots assigned to this hub!   Will you be the first?
Content